Location: Ch�tillon
(48.8024°N, 2.2935°E)
Time: 12:30:07
(UTC+00:00)

Cosmos 1697 Rocket - Pass Details

Date: 27 May 2022
Orbit: 833 x 843 km, 71.0° (Epoch: 03 July)

Event Time Altitude Azimuth Distance (km) Brightness Sun altitude
Rises 20:23:56 0° 213° (SSW) 3,388 5.7 -6.4°
Reaches altitude 10° 20:26:22 10° 215° (SW) 2,457 5.0 -6.7°
Maximum altitude 20:32:00 72° 300° (WNW) 888 3.1 -7.3°
Drops below altitude 10° 20:37:41 10° 25° (NNE) 2,471 5.4 -8.0°
Sets 20:40:09 0° 28° (NNE) 3,409 6.1 -8.3°
